www.pogodaiklimat.ru

Погода и климат >> Архив погоды >> Гана >> Bole


ПОГОДА в Bole

  • Прогноз погоды в Bole
  • Монитор погоды в Bole
  • Климат города

АРХИВ ПОГОДЫ в Bole

Время (UTC), дата Ветер
(напр.,м/с)
 
Видим.   Явления Облачность Т
(С)
Тd
(С)
f
(%)
Тe
(С)
Тes
(С)
Комфортность P
(гПа)
Po
(гПа)
Тmin
(С)
Tmax
(С)
R
(мм)
R24
(мм)
S
(см)
15 8.12 ЮВ 2 8000 м мгла 8/0
[Cs]
+36.0 +12.0 24 +36 +43 очень
жарко
1007.2 1007.0
18 8.12 штиль 0 8000 м мгла 8/0
[Cs]
+30.5 +19.0 50 +36 +36 очень
душно
1008.8 1009.0 +36.0
21 8.12 штиль 0 8000 м мгла 8/0
[Cs]
+25.0 +16.9 61 +29 +29 душно 1012.4 1012.0
00 9.12 ЮВ 1 8000 м мгла 4/0
[Ci sp]
+24.3 +19.0 72 +29 +29 душно 1012.8 1013.0
03 9.12 штиль 0 8000 м дымка 4/0
[Ci sp]
+23.2 +19.3 79 +30 +30 очень
душно
1011.9 1012.0
06 9.12 СВ 1 8000 м дымка 4/0
[Ci sp]
+21.0 +19.7 92 +27 +27 душно 1012.5 1013.0 +21.0
09 9.12 ЮВ 1 2000 м дымка 3/0
[Ci sp]
+26.5 +23.2 82 +36 +43 очень
душно
1014.2 1014.0
12 9.12 ЮЗ 2 1000 м мгла 6/0
[Cs]
+32.2 +26.0 70 +48 +63 опасность
перегрева
1011.3 1011.0
15 9.12 С 3 1500 м мгла ясно +33.5 +9.9 24 +33 +39 жарко 1009.1 1009.0
21 9.12 штиль 0 2000 м мгла ясно +26.0 +13.3 45 +28 +28 жарко 1014.8 1015.0
03 10.12 штиль 0 2000 м мгла ясно +22.0 +11.3 51 +24 +24 комфорт 1012.8 1013.0
06 10.12 СВ 1 2000 м мгла ясно +21.0 +10.0 49 +24 +24 комфорт 1014.4 1014.0 +21.0
09 10.12 СВ 4 2000 м мгла ясно +26.0 +5.9 28 +26 +31 жарко 1014.7 1015.0
12 10.12 СВ 2 2000 м мгла ясно +31.3 +5.5 20 +29 +45 жарко 1012.7 1013.0
15 10.12 СВ 2 2000 м мгла ясно +33.5 +2.4 14 +30 +39 жарко 1008.9 1009.0
18 10.12 СВ 1 10 км мгла ясно +28.5 +10.0 32 +29 +29 жарко 1010.2 1010.0 +33.5
09 11.12 СВ 2 6000 м мгла ясно +26.6 +3.5 23 +25 +33 комфорт 1015.3 1015.0
12 11.12 СВ 2 6000 м мгла ясно +32.5 +4.6 17 +30 +47 жарко 1011.8 1012.0
15 11.12 СВ 1 6000 м мгла ясно +34.5 +6.4 18 +32 +42 жарко 1008.6 1009.0
18 11.12 СВ 1 6000 м мгла ясно +31.0 +11.4 30 +31 +31 жарко 1010.5 1011.0 +34.5
21 11.12 штиль 0 6000 м мгла ясно +23.7 +10.9 44 +25 +25 комфорт 1013.3 1013.0
06 12.12 штиль 0 6000 м мгла 8/0
[Ac trans]
+18.0 +10.4 61 +18 +18 1013.2 1013.0 +18.0
12 12.12 СЗ 2 6000 м мгла 6/0
[Ac trans Ci sp]
+32.2 +4.7 18 +30 +42 жарко 1011.8 1012.0
15 12.12 ЮВ 1 6000 м мгла 8/0
[Ac trans Ci sp]
+35.0 +7.5 18 +33 +38 жарко 1009.7 1010.0
18 12.12 штиль 0 6000 м мгла 1/0
[Ci sp]
+29.0 +11.9 35 +30 +30 жарко 1011.0 1011.0 +35.0
21 12.12 штиль 0 6000 м мгла ясно +24.0 +13.8 53 +26 +26 жарко 1014.0 1014.0
00 13.12 штиль 0 6000 м мгла ясно +22.5 +13.0 55 +25 +25 комфорт 1013.1 1013.0
03 13.12 штиль 0 6000 м мгла ясно +20.0 +13.0 64 +22 +22 комфорт 1011.3 1011.0
06 13.12 штиль 0 6000 м мгла 8/0
[Ac trans Cs]
+21.5 +14.7 65 +25 +25 комфорт 1013.8 1014.0 +21.5
09 13.12 СЗ 1 6000 м мгла 8/0
[Cs]
+28.0 +14.9 45 +31 +38 душно 1014.0 1014.0
12 13.12 В 1 4000 м мгла 8/0
[Ac trans Cs]
+33.0 +13.3 30 +34 +46 очень
жарко
1013.3 1013.0
15 13.12 ЮВ 1 4000 м мгла 8/0
[Ac trans Cs]
+36.5 +12.9 24 +36 +44 очень
жарко
1008.0 1008.0
18 13.12 штиль 0 4000 м мгла 8/0
[Ac trans]
+31.5 +14.0 35 +33 +33 жарко 1010.1 1010.0 +36.5
21 13.12 С 1 4000 м мгла ясно +26.0 +16.3 55 +29 +29 душно 1013.5 1014.0
00 14.12 штиль 0 4000 м мгла ясно +24.0 +17.5 67 +28 +28 душно 1013.3 1013.0
06 14.12 штиль 0 4000 м мгла ясно +22.5 +18.4 78 +28 +28 душно 1012.6 1013.0 +22.4
09 14.12 С 2 4000 м мгла 5/0
[Ci sp]
+27.5 +19.8 63 +33 +40 очень
душно
1014.0 1014.0
12 14.12 С 2 4000 м мгла 4/0
[Ci sp]
+33.5 +20.0 45 +40 +55 опасность
солнечного
удара
1011.6 1012.0
15 14.12 В 2 4000 м мгла 8/0
[Cs]
+35.5 +17.9 35 +39 +46 очень
душно
1008.9 1009.0
21 14.12 ЮВ 1 4000 м мгла 8/0
[Ac trans Cs]
+28.0 +15.9 48 +31 +31 душно 1013.1 1013.0
09 15.12 СЗ 2 4000 м мгла 3/0
[Ci fib]
+27.6 +22.3 73 +36 +42 очень
душно
1013.7 1014.0
12 15.12 СЗ 2 4000 м мгла 1/0
[Ci fib]
+33.8 +18.0 39 +38 +55 опасность
солнечного
удара
1011.2 1011.0

 

Местоположение метеостанции Bole (Гана): широта 9.03 долгота -2.48 высота над уровнем моря 301 м.

В архиве по умолчанию представлена погода в Bole за последнюю неделю. Архивные данные за месяц целиком и за предыдущие месяцы, начиная с января 2011 года, Вы можете получить, выбрав интересующий диапазон дат из раскрывающегося списка и нажав кнопку "Ввод!".

Внимание! Время в таблицах - всемирное. Для получения местного времени необходимо прибавить поправку, которая в Bole равна 1 ч.

Смотрите также архив погоды в соседних городах и на ближайших метеорологических станциях:

Погода в Wa (Гана) (113 км)
Погода в Bondoukou (Кот-д'Ивуар) (114 км)
Погода в Wenchi (Гана) (148 км)
Погода в Gaoua (Буркина-Фасо) (164 км)
Погода в Tamale (Гана) (186 км)
Погода в Sunyani (Гана) (190 км)
Погода в Navrongo (Гана) (257 км)
Погода в Yendi (Гана) (274 км)
Погода в Kumasi (Гана) (275 км)
Погода в Po (Буркина-Фасо) (277 км)

Пояснения к столбцам:

Ветер - указаны скорость ветра в м/с - средняя за 10 мин, порывы в срок и между сроками (в фигурных скобках) и направление, откуда дует ветер: С - северный, СВ - северо-восточный, В - восточный, ЮВ - юго-восточный, Ю - южный, ЮЗ - юго-западный, З - западный, СЗ - северо-западный.
Видимость - горизонтальная дальность видимости в метрах или километрах. При видимости от 1 до 10 км при отсутствии осадков обычно наблюдается дымка, при ухудшении видимости до 1 км и менее - туман. В сухую погоду видимость может ухудшаться дымом, пылью или мглою.
Явления - указаны атмосферные явления, наблюдавшиеся в срок или в последний час перед сроком; фигурными скобками обозначены явления, наблюдавшиеся между сроками (за 1-3 часа до срока); квадратными скобками обозначены град или гололедные отложения с указанием их диаметра в мм.
Облачность - указаны через наклонную черту общая и нижняя облачность в баллах и высота нижней границы облаков в метрах; квадратными скобками обозначены формы облаков: Ci - перистые, Cs - перисто-слоистые, Cc - перисто-кучевые, Ac - высококучевые, As - высокослоистые, Sc - слоисто-кучевые, Ns - слоисто-дождевые, Cu - кучевые, Cb - кучево-дождевые. Подробнее классификацию облаков см. в Атласе облаков (PDF).
T - Температура воздуха - температура, измеренная на высоте 2 м над землей.
Td - Температура точки росы - температура, при понижении до которой содержащийся в воздухе водяной пар достигнет насыщения.
f - Относительная влажность воздуха - влажноcть воздуха, измеренная на высоте 2 м над землей.
Te - Эффективная температура - температура, которую ощущает одетый по сезону человек в тени. Характеристика душности погоды. При расчете учитывается влияние влажности воздуха и скорости ветра на теплоощущения человека.
Tes - Эффективная температура на солнце - температура, которую ощущает человек, с поправкой на солнечный нагрев. Характеристика знойности погоды. Зависит от высоты солнца над горизонтом, облачности и скорости ветра. Ночью, в пасмурную погоду, а также при ветре 12 м/с и более поправка равна нулю.
P - Атмосферное давление - приведенное к уровню моря атмосферное давление.
Po - Атмосферное давление - измеренное на уровне метеостанции атмосферное давление.
Tmin - Минимальная температура - минимум температуры воздуха на высоте 2 м над землей.
Tmax - Максимальная температура - максимум температуры воздуха на высоте 2 м над землей.
R - Количество осадков - Количество выпавших осадков за период времени, мм. При наведении курсора мыши на число - период времени, за который выпало указанное количество осадков.
R24 - Количество осадков - Количество выпавших осадков за 24 часа, мм.
S - Снежный покров - Высота снежного покрова, см. При наведении курсора мыши на число - состояние снежного покрова и степень покрытия местности в баллах.